Hourly Data Report for November 16, 2020

OTTAWA INTL A
ONTARIO
Current Station Operator: NAVCAN

45°19'00.000" N
75°40'00.000" W
114.90 m
6106001
71628
YOW

Download Data

Hourly Data (November 2020)
Hourly Data Report for November 16, 2020
TIME Temp Definition
°C
Dew Point Definition
°C
Rel Hum Definition
%
Wind Dir Definition
10's deg

Wind Spd Definition
km/h
Visibility Definition
km
Stn Press Definition
kPa
Hmdx Definition


Wind Chill Definition


Weather Definition


00:00 6.1 2.4 77 22 31 24.1 98.37     LegendNANA
01:00 5.7 0.8 71 23 39 24.1 98.47     Mostly Cloudy
02:00 4.7 0.5 74 23 32 24.1 98.54     LegendNANA
03:00 5.0 -0.4 68 22 35 24.1 98.52     LegendNANA
04:00 5.1 -1.2 64 22 40 24.1 98.55     Cloudy
05:00 5.0 -1.4 64 22 35 24.1 98.59     LegendNANA
06:00 4.9 -1.2 65 22 37 24.1 98.66     LegendNANA
07:00 4.6 -0.5 70 23 39 24.1 98.79     Cloudy
08:00 4.4 0.2 74 23 31 24.1 98.91     LegendNANA
09:00 4.7 0.4 74 23 36 24.1 98.98     LegendNANA
10:00 5.6 0.0 67 23 36 24.1 99.06     Mainly Clear
11:00 6.0 0.5 68 23 40 24.1 99.09     LegendNANA
12:00 6.0 0.0 65 24 36 24.1 99.12     LegendNANA
13:00 5.8 0.4 68 24 27 24.1 99.15     Mostly Cloudy
14:00 7.5 -2.0 51 26 34 24.1 99.18     LegendNANA
15:00 6.0 -3.1 52 25 31 24.1 99.24     LegendNANA
16:00 5.2 -3.2 55 26 27 24.1 99.31     Cloudy
17:00 4.4 -2.7 60 25 31 24.1 99.41     Rain
18:00 3.5 -2.7 64 26 34 24.1 99.50     Rain
19:00 2.4 -1.6 75 25 16 24.1 99.54     Cloudy
20:00 2.1 -1.8 75 24 20 24.1 99.57     LegendNANA
21:00 2.1 -2.6 71 25 13 24.1 99.63     LegendNANA
22:00 2.1 -1.9 75 24 20 24.1 99.65     Cloudy
23:00 2.2 -2.4 72 23 22 24.1 99.63     LegendNANA

Notes on Data Quality.

Legend

  • E = Estimated
  • M = Missing
  • NA = Not Available*
  • [empty] = Indicates an unobserved value
Date modified: